DW2973 Frederiksvaerk DK current weather conditions

sailwx.info

Wind from 071 at 1 knots

Air temperature 5.0° C
Dewpoint 1.8° C

Last reported at 2019-Nov-11 22:02 UTC.
Time now 2019-Nov-11 22:34 UTC

Location: N 55°59' E 011°59'.
View on Google Maps.

See reports from other nearby stations

  
Tides and Currents Weather Stations Pressure Air Temp Water Temp Dewpoint Dewpoint Depression Visibility Wind Speed Wind Dir Waves Ship Positions
date/time (UTC)wind fromknots sea level pressurealtimeterstation pressurevisibilityair tempwater tempwave heightnotes
2019-Nov-11 22:02 071 1 5.0
2019-Nov-11 21:48 123 2 5.0
2019-Nov-11 21:31 123 1 5.0
2019-Nov-11 21:16 129 2 4.4
2019-Nov-11 21:01 105 0 5.0
2019-Nov-11 20:47 105 1 4.4
2019-Nov-11 20:31 101 2 4.4
2019-Nov-11 20:16 173 0 4.4
2019-Nov-11 20:01 117 2 4.4
2019-Nov-11 19:46 094 0 3.9
2019-Nov-11 19:31 121 1 3.9
2019-Nov-11 19:16 146 0 3.9
2019-Nov-11 19:01 121 2 3.9
2019-Nov-11 18:46 107 1 3.9
2019-Nov-11 18:31 096 1 3.3
2019-Nov-11 18:16 142 0 3.3
2019-Nov-11 18:01 101 3.3
2019-Nov-11 17:46 155 3.3
2019-Nov-11 17:31 123 3.3
2019-Nov-11 17:15 126 3.3
2019-Nov-11 17:01 122 3.3
2019-Nov-11 16:45 202 0 3.9
2019-Nov-11 16:31 137 3.9
2019-Nov-11 16:16 136 4.4
2019-Nov-11 16:01 155 0 4.4
2019-Nov-11 15:46 130 4.4
2019-Nov-11 15:30 136 0 4.4
2019-Nov-11 15:16 113 0 4.4
2019-Nov-11 15:00 156 0 5.0
2019-Nov-11 14:45 193 0 5.0
2019-Nov-11 14:30 154 0 5.6
2019-Nov-11 14:15 128 0 5.6
2019-Nov-11 14:00 145 0 5.6
2019-Nov-11 13:45 165 0 5.6
2019-Nov-11 13:30 119 1 6.1
2019-Nov-11 13:15 151 0 6.7
2019-Nov-11 13:00 071 0 6.7
2019-Nov-11 12:45 126 1 6.7
2019-Nov-11 12:30 193 0 6.7
2019-Nov-11 12:15 157 1 6.7
2019-Nov-11 12:00 203 1 6.7
2019-Nov-11 11:45 234 3 7.2
2019-Nov-11 11:30 115 3 7.2
2019-Nov-11 11:15 209 1 7.2
2019-Nov-11 11:00 111 0 7.2
2019-Nov-11 10:47 172 1 7.2
2019-Nov-11 10:31 179 0 6.7
2019-Nov-11 10:16 221 0 6.7
2019-Nov-11 10:02 206 1 6.1
2019-Nov-11 09:46 189 0 6.1
2019-Nov-11 09:31 167 0 6.1
2019-Nov-11 09:16 142 1 6.1
2019-Nov-11 09:02 188 0 6.1
2019-Nov-11 08:47 189 0 6.1
2019-Nov-11 08:31 197 0 6.1
2019-Nov-11 08:17 118 1 5.6
2019-Nov-11 08:01 191 2 5.6
2019-Nov-11 07:46 107 2 5.6
2019-Nov-11 07:31 207 1 5.6
2019-Nov-11 07:16 217 0 5.6
2019-Nov-11 07:01 199 5.0
2019-Nov-11 06:46 187 0 5.0
2019-Nov-11 06:31 208 0 5.0
2019-Nov-11 06:16 217 0 5.0
2019-Nov-11 06:01 269 5.0
2019-Nov-11 05:46 198 0 5.0
2019-Nov-11 05:31 183 0 5.0
2019-Nov-11 05:16 161 0 5.0
2019-Nov-11 05:02 185 0 5.0
2019-Nov-11 04:46 196 0 5.0
2019-Nov-11 04:31 223 0 5.0
2019-Nov-11 04:16 215 0 5.0
2019-Nov-11 04:01 205 0 5.0
2019-Nov-11 03:45 219 0 5.0
2019-Nov-11 03:31 210 0 5.0
2019-Nov-11 03:16 198 5.0
2019-Nov-11 03:00 243 2 5.0
2019-Nov-11 02:46 179 1 5.0
2019-Nov-11 02:30 180 0 4.4
2019-Nov-11 02:16 176 0 4.4
2019-Nov-11 02:00 225 0 4.4
2019-Nov-11 01:45 162 0 4.4
2019-Nov-11 01:30 148 0 5.0
2019-Nov-11 01:15 210 0 5.0
2019-Nov-11 01:00 180 0 4.4
2019-Nov-11 00:45 129 0 4.4
2019-Nov-11 00:30 146 4.4
2019-Nov-11 00:15 202 0 4.4
2019-Nov-11 00:00 152 0 4.4
2019-Nov-10 23:45 144 3.9
2019-Nov-10 23:31 190 0 3.3
2019-Nov-10 23:16 136 3.3
2019-Nov-10 23:03 150 3.3
2019-Nov-10 22:47 131 3.3
2019-Nov-10 22:31 134 3.3
2019-Nov-10 22:17 130 3.3
2019-Nov-10 22:01 148 3.3
2019-Nov-10 21:47 121 3.3
2019-Nov-10 21:31 136 3.3
2019-Nov-10 21:16 157 3.9
2019-Nov-10 21:02 138 3.9
2019-Nov-10 20:46 130 0 4.4
2019-Nov-10 20:31 136 4.4
2019-Nov-10 20:16 142 3.9
2019-Nov-10 20:01 147 4.4
2019-Nov-10 19:46 111 4.4
2019-Nov-10 19:31 139 4.4
2019-Nov-10 19:16 141 4.4
2019-Nov-10 19:02 142 3.9
2019-Nov-10 18:46 143 3.3
2019-Nov-10 18:31 130 3.3
2019-Nov-10 18:16 130 3.9
2019-Nov-10 18:01 130 3.9
2019-Nov-10 17:46 036 3.9
2019-Nov-10 17:31 036 4.4
2019-Nov-10 17:15 036 4.4
2019-Nov-10 17:01 036 4.4
2019-Nov-10 16:46 036 4.4
2019-Nov-10 16:31 036 4.4
2019-Nov-10 16:15 036 4.4
2019-Nov-10 16:00 036 4.4
2019-Nov-10 15:46 036 5.0
2019-Nov-10 15:30 036 5.0
2019-Nov-10 15:16 036 5.0
2019-Nov-10 15:00 036 5.6
2019-Nov-10 14:45 036 5.6
2019-Nov-10 14:31 036 6.1
2019-Nov-10 14:16 042 6.1
2019-Nov-10 14:00 360 0 6.1
2019-Nov-10 13:45 024 0 6.1
2019-Nov-10 13:30 015 6.1
2019-Nov-10 13:15 017 6.7
2019-Nov-10 13:00 105 6.7
2019-Nov-10 12:45 102 6.7
2019-Nov-10 12:30 355 6.7
2019-Nov-10 12:15 015 0 6.7
2019-Nov-10 12:00 322 0 6.7
2019-Nov-10 11:45 037 6.7
2019-Nov-10 11:30 030 6.7
2019-Nov-10 11:15 030 6.7
2019-Nov-10 11:00 030 6.7
2019-Nov-10 10:45 030 6.7
2019-Nov-10 10:30 034 6.7
2019-Nov-10 10:15 034 6.7
2019-Nov-10 10:00 034 6.7
2019-Nov-10 09:45 029 6.7
2019-Nov-10 09:32 030 6.7
2019-Nov-10 09:16 026 6.7
2019-Nov-10 09:02 026 6.1
2019-Nov-10 08:48 026 6.1
2019-Nov-10 08:31 026 6.1
2019-Nov-10 08:16 026 6.1
2019-Nov-10 08:02 026 6.1
2019-Nov-10 07:46 026 5.6
2019-Nov-10 07:31 026 5.6
2019-Nov-10 07:16 025 5.6
2019-Nov-10 07:01 026 5.6
2019-Nov-10 06:46 025 5.6
2019-Nov-10 06:30 026 5.6
2019-Nov-10 06:16 025 5.6
2019-Nov-10 06:00 025 5.6
2019-Nov-10 05:46 025 5.6
2019-Nov-10 05:30 025 5.6
2019-Nov-10 05:16 026 5.6
2019-Nov-10 05:01 026 5.6
2019-Nov-10 04:46 026 5.6
2019-Nov-10 04:31 026 5.6
2019-Nov-10 04:16 026 5.6
2019-Nov-10 04:01 026 5.6
2019-Nov-10 03:46 025 5.6
2019-Nov-10 03:30 026 5.6
2019-Nov-10 03:15 026 5.6
2019-Nov-10 03:00 025 5.6
2019-Nov-10 02:46 025 5.6
2019-Nov-10 02:30 025 5.6
2019-Nov-10 02:15 025 5.6
2019-Nov-10 02:00 026 5.6
2019-Nov-10 01:45 026 5.6
2019-Nov-10 01:31 026 5.6
2019-Nov-10 01:15 026 5.6
2019-Nov-10 01:00 026 5.6
2019-Nov-10 00:45 025 5.6
2019-Nov-10 00:30 026 5.6
2019-Nov-10 00:15 026 5.6
2019-Nov-10 00:00 025 6.1
2019-Nov-09 23:45 025 5.6
2019-Nov-09 23:30 025 5.6
2019-Nov-09 23:15 025 5.6
2019-Nov-09 23:00 025 5.0
2019-Nov-09 22:45 026 5.0
2019-Nov-09 22:30 026 5.0
2019-Nov-09 22:15 026 5.6
2019-Nov-09 22:00 026 5.6